Regional Weather Roundup
Issued by NWS Green Bay, WI

Home | Current Version | Previous Version | Text Only | Print | Product List | Glossary On
Versions: 1 2 3 4 5 6 7 8 9 10 11 12 13 14 15 16 17 18 19 20 21 22 23 24 25 26 27 28 29 30 31 32 33 34 35 36 37 38 39 40 41 42 43 44 45 46 47 48 49 50
000
ASUS43 KGRB 270411
RWRGRB

NORTH-CENTRAL AND NORTHEAST WISCONSIN REGIONAL WEATHER ROUNDUP
NATIONAL WEATHER SERVICE GREEN BAY WI
1000 PM CST SUN FEB 26 2017

WIZ005-009-010>012-018-019-270500-
NORTH CENTRAL WISCONSIN

CITY           SKY/WX    TMP DP  RH WIND       PRES   REMARKS
IRONWOOD       FAIR       8   1  73 SW3       29.93R
MANITOWISH WTR FAIR       5   5 100 CALM      29.90R
ARBOR VITAE    FAIR      11   8  86 CALM        N/A
EAGLE RIVER    FAIR      10   6  85 CALM      29.90R
LAND O LAKES   FAIR       2  -1  85 CALM      29.91R
RHINELANDER    FAIR       1  32 100 CALM      29.91R
PHILLIPS       FAIR       9   6  87 CALM      29.91R
ANTIGO         MOCLDY    23  15  71 NW7       29.91R
TOMAHAWK       FAIR      13  10  87 CALM      29.93R
MERRILL        NOT AVBL
$$

WIZ013-073-270500-
NORTHEAST WISCONSIN

CITY           SKY/WX    TMP DP  RH WIND       PRES   REMARKS
IRON MOUNTAIN  FAIR      20  10  65 NW6       29.91R
MARINETTE      CLOUDY    31  22  69 NW5       29.94R
OCONTO         FAIR      29  19  67 W3        29.94R
$$

WIZ017-030-035>037-045-270500-
CENTRAL WISCONSIN

CITY           SKY/WX    TMP DP  RH WIND       PRES   REMARKS
MEDFORD        FAIR      21  11  66 N3        29.91R
WAUSAU         FAIR      28  20  71 NW6       29.91R
MOSINEE        CLEAR     27  21  80 SW7       29.93R
MARSHFIELD     FAIR      25  19  78 W7        29.93R
WISC RAPIDS    FAIR      29  22  75 W7        29.96R
STEVENS POINT  FAIR      28  20  72 W8        29.95R
WAUPACA        FAIR      32  20  62 SW7       29.96R
SHAWANO        MOCLDY    32  20  61 SW3       29.94R
CLINTONVILLE   MOCLDY    30  19  64 W6        29.94R
WAUTOMA        FAIR      29  22  75 W6          N/A
$$

WIZ038-039-048-051-270500-
FOX VALLEY

CITY           SKY/WX    TMP DP  RH WIND       PRES   REMARKS
NWS GREEN BAY  FAIR      33  21  61 W8        29.94R
APPLETON       PTCLDY    30  18  59 W8        29.93R
OSHKOSH        FAIR      32  21  64 W6        29.96R
FOND DU LAC    FAIR      32  21  64 SW7       29.97R
$$

WIZ022-050-052-270500-
EAST CENTRAL WISCONSIN

CITY           SKY/WX    TMP DP  RH WIND       PRES   REMARKS
EPHRAIM        FAIR      29  24  81 N6        29.92R
WASHINGTON ISL CLOUDY    27  19  69 N10G17    29.93R
STURGEON BAY   FAIR      30  21  69 W5        29.93R
MANITOWOC      FAIR      34  23  64 W10       29.95R
SHEBOYGAN      FAIR      31  23  72 SW8       29.96R
$$

LMZ563-521-522-541>543-270500-
LAKESHORE

STATION/POSITION TIME  TEMP    WIND        PRES    VSBY  WAVE
                       AIR SEA DIR/SP/G                  HT/PER
                 (UTC) (F)     (DEG/KT/KT) (MB)    (MI)  (FT/S)
SHEBOYGAN LKSHOR 0400   36     250/  9/ 12 1015.1R
KEWAUNEE LKSHORE 0342   34     280/  2/  5 1013.2R
NORTHPORT PIER   0400   29     330/ 15/ 18 1013.9
SISTER BAY LKSHO 0320   28      10/ 11/ 12   N/A
CHAMBERS ISLAND  0340   30     310/  9/ 11 1013.2R
MENOMINEE LKSHOR 0342   32     300/  4/  6 1012.8R
$$




USA.gov is the U.S. government's official web portal to all federal, state and local government web resources and services.